Weather History for KMMU - April, 2014

Change the Weather History Date:

Wednesday, April 2, 2014

  Actual Average Record
Temperature  
Mean Temperature 44 °F -  
Max Temperature 53 °F 57 °F 80 °F (1978)
Min Temperature 35 °F 34 °F 16 °F (1964)
Degree Days  
Heating Degree Days 21    
Moisture  
Dew Point 36 °F    
Average Humidity 80    
Maximum Humidity 93    
Minimum Humidity 30    
Precipitation  
Precipitation 0.00 in - - ()
Sea Level Pressure  
Sea Level Pressure 30.08 in    
Wind  
Wind Speed 1 mph (SSW)    
Max Wind Speed 7 mph    
Max Gust Speed -    
Visibility 10 miles    
Events      
Averages and records for this station are not official NWS values.
T = Trace of Precipitation, MM = Missing Value Source: NWS Daily Summary

Daily Weather History Graph

Daily Weather History Graph

Search for Another Location

Airport or City:

Trip Planner

Search our weather history database for the weather conditions in past years. The results will help you decide how hot, cold, wet, or windy it might be!

Date:

Astronomy

Apr. 02, 2014 Rise Set
Actual Time 6:39 AM EDT 7:23 PM EDT
Civil Twilight 6:11 AM EDT 7:51 PM EDT
Nautical Twilight 5:39 AM EDT 8:24 PM EDT
Astronomical Twilight 5:05 AM EDT 8:58 PM EDT
Moon 8:21 AM EDT (4/2) 10:45 PM EDT (4/2)
Length of Visible Light 13h 39m
Length of Day
12h 43m
Waxing Crescent, 10% of the Moon is Illuminated
Apr 2
Waxing Crescent
Apr 7
First Quarter
Apr 15
Full
Apr 22
Last Quarter
Apr 29
New

Hourly Weather History & Observations

Time (EDT) Temp. Windchill Dew Point Humidity Pressure Visibility Wind Dir Wind Speed Gust Speed Precip Events Conditions
12:15 AM 42.8 °F 41.1 °F 35.6 °F 76% 30.07 in 10.0 mi SSE 3.5 mph - N/A   Clear
12:35 AM 42.8 °F 41.1 °F 35.6 °F 76% 30.06 in 10.0 mi South 3.5 mph - N/A   Clear
12:55 AM 42.8 °F - 35.6 °F 76% 30.06 in 10.0 mi Calm Calm - N/A   Clear
1:15 AM 41.0 °F - 35.6 °F 81% 30.06 in 10.0 mi Calm Calm - N/A   Clear
1:35 AM 41.0 °F - 35.6 °F 81% 30.07 in 10.0 mi Calm Calm - N/A   Clear
1:55 AM 41.0 °F - 35.6 °F 81% 30.06 in 10.0 mi Calm Calm - N/A   Clear
2:15 AM 41.0 °F - 33.8 °F 76% 30.07 in 10.0 mi Calm Calm - N/A   Clear
2:35 AM 39.2 °F - 33.8 °F 81% 30.07 in 10.0 mi Calm Calm - N/A   Clear
2:55 AM 39.2 °F - 33.8 °F 81% 30.06 in 10.0 mi Calm Calm - N/A   Clear
3:15 AM 37.4 °F - 33.8 °F 87% 30.07 in 10.0 mi Calm Calm - N/A   Clear
3:35 AM 37.4 °F - 33.8 °F 87% 30.06 in 10.0 mi Calm Calm - N/A   Clear
3:55 AM 37.4 °F - 35.6 °F 93% 30.06 in 10.0 mi Calm Calm - N/A   Clear
4:15 AM 37.4 °F - 33.8 °F 87% 30.07 in 10.0 mi Calm Calm - N/A   Clear
4:35 AM 37.4 °F - 33.8 °F 87% 30.07 in 10.0 mi Calm Calm - N/A   Clear
4:55 AM 37.4 °F - 35.6 °F 93% 30.08 in 10.0 mi Calm Calm - N/A   Clear
5:15 AM 37.4 °F - 35.6 °F 93% 30.08 in 10.0 mi Calm Calm - N/A   Clear
5:35 AM 37.4 °F - 33.8 °F 87% 30.08 in 10.0 mi Calm Calm - N/A   Clear
5:55 AM 37.4 °F - 35.6 °F 93% 30.08 in 10.0 mi Calm Calm - N/A   Clear
6:15 AM 39.2 °F - 35.6 °F 87% 30.08 in 10.0 mi Calm Calm - N/A   Clear
6:35 AM 39.2 °F - 35.6 °F 87% 30.08 in 10.0 mi Calm Calm - N/A   Clear
6:45 AM 35.6 °F - 33.8 °F 93% 30.08 in 10.0 mi Calm Calm - N/A   Clear
8:45 AM 41.0 °F - 37.4 °F 87% 30.13 in 10.0 mi Calm Calm - N/A   Overcast
9:45 AM 42.8 °F - 37.4 °F 81% 30.15 in 10.0 mi Calm Calm - N/A   Overcast
10:45 AM 44.6 °F 42.2 °F 37.4 °F 76% 30.13 in 10.0 mi West 4.6 mph - N/A   Overcast
11:45 AM 44.6 °F - 37.4 °F 76% 30.11 in 10.0 mi Calm Calm - N/A   Overcast
12:45 PM 46.4 °F - 37.4 °F 71% 30.11 in 10.0 mi Calm Calm - N/A   Overcast
1:45 PM 48.2 °F - 37.4 °F 66% 30.10 in 10.0 mi Calm Calm - N/A   Overcast
2:45 PM 50.0 °F - 39.2 °F 66% 30.08 in 10.0 mi South 4.6 mph - N/A   Overcast
3:45 PM 51.8 °F - 41.0 °F 67% 30.06 in 10.0 mi SW 6.9 mph - N/A   Mostly Cloudy
4:45 PM 53.6 °F - 41.0 °F 62% 30.05 in 10.0 mi SSW 5.8 mph - N/A   Mostly Cloudy
5:45 PM 53.6 °F - 23.0 °F 30% 30.06 in 10.0 mi South 5.8 mph - N/A   Mostly Cloudy
6:45 PM 53.6 °F - 41.0 °F 62% 30.07 in 10.0 mi SSW 5.8 mph - N/A   Scattered Clouds
7:45 PM 50.0 °F - 41.0 °F 71% 30.07 in 10.0 mi SSW 4.6 mph - N/A   Mostly Cloudy
8:45 PM 42.8 °F - 37.4 °F 81% 30.08 in 10.0 mi Calm Calm - N/A   Clear
9:45 PM 41.0 °F - 37.4 °F 87% 30.08 in 10.0 mi Calm Calm - N/A   Clear
10:15 PM 42.8 °F - 37.4 °F 81% 30.08 in 10.0 mi Calm Calm - N/A   Clear
10:35 PM 41.0 °F - 37.4 °F 87% 30.08 in 10.0 mi Calm Calm - N/A   Clear
10:55 PM 41.0 °F - 37.4 °F 87% 30.09 in 10.0 mi Calm Calm - N/A   Clear
11:15 PM 41.0 °F - 37.4 °F 87% 30.09 in 10.0 mi Calm Calm - N/A   Clear
11:35 PM 39.2 °F - 35.6 °F 87% 30.08 in 10.0 mi Calm Calm - N/A   Clear
11:55 PM 39.2 °F - 37.4 °F 93% 30.08 in 5.0 mi Calm Calm - N/A   Clear